Regional Weather Roundup
Issued by NWS Green Bay, WI

Home | Current Version | Previous Version | Text Only | Print | Product List | Glossary On
Versions: 1 2 3 4 5 6 7 8 9 10 11 12 13 14 15 16 17 18 19 20 21 22 23 24 25 26 27 28 29 30 31 32 33 34 35 36 37 38 39 40 41 42 43 44 45 46 47 48 49 50
332
ASUS43 KGRB 181811
RWRGRB

NORTH-CENTRAL AND NORTHEAST WISCONSIN REGIONAL WEATHER ROUNDUP
NATIONAL WEATHER SERVICE GREEN BAY WI
1200 PM CST WED JAN 18 2017

WIZ005-009-010>012-018-019-181900-
NORTH CENTRAL WISCONSIN

CITY           SKY/WX    TMP DP  RH WIND       PRES   REMARKS
IRONWOOD       SUNNY     42  26  53 SW10      29.78F
MANITOWISH WTR SUNNY     37  28  71 S9        29.80F
ARBOR VITAE    SUNNY     39  29  67 SW6G16    29.82F
EAGLE RIVER    SUNNY     37  27  65 SW8       29.81F
LAND O LAKES   SUNNY     40  27  59 SW7       29.81F
RHINELANDER    SUNNY     37  29  72 SW12      29.85F HAZE
PHILLIPS       SUNNY     35  28  78 SW12      29.84F
ANTIGO         MOSUNNY   31  31 100 SW10      29.88F
TOMAHAWK       SUNNY     37  28  70 S5        29.86F
MERRILL        SUNNY     35  30  83 SW8         N/A
$$

WIZ013-073-181900-
NORTHEAST WISCONSIN

CITY           SKY/WX    TMP DP  RH WIND       PRES   REMARKS
IRON MOUNTAIN  SUNNY     39  27  62 SW7       29.83F
MARINETTE      NOT AVBL
OCONTO         PTSUNNY   35  31  85 SW10      29.94F
$$

WIZ017-030-035>037-045-181900-
CENTRAL WISCONSIN

CITY           SKY/WX    TMP DP  RH WIND       PRES   REMARKS
MEDFORD        MOSUNNY   31  28  88 S9        29.88F
WAUSAU         SUNNY     32  30  92 S5        29.89F
MOSINEE        MOSUNNY   34  34 100 S8        29.91F
MARSHFIELD     SUNNY     35  30  82 S9        29.89F
WISC RAPIDS    SUNNY     33  31  92 S12       29.94F
STEVENS POINT  MOSUNNY   32  31  96 S9        29.93F
WAUPACA        SUNNY     40  32  73 CALM      29.96F
SHAWANO        PTSUNNY   38  32  78 SW5       29.94F
CLINTONVILLE   MOSUNNY   36  32  87 SW12      29.93F
WAUTOMA        SUNNY     38  31  76 SW7       29.97F
$$

WIZ038-039-048-051-181900-
FOX VALLEY

CITY           SKY/WX    TMP DP  RH WIND       PRES   REMARKS
NWS GREEN BAY  CLOUDY    35  32  88 SW12      29.96F
APPLETON       PTSUNNY   32  32 100 SW8       29.94F
OSHKOSH        CLOUDY    33  30  88 SW12      29.97F
FOND DU LAC    CLOUDY    34  30  85 SW8       29.97F
$$

WIZ022-050-052-181900-
EAST CENTRAL WISCONSIN

CITY           SKY/WX    TMP DP  RH WIND       PRES   REMARKS
EPHRAIM        CLOUDY    32  32 100 SW10G22   29.91F
WASHINGTON ISL CLOUDY    32  31  95 SW16G22   29.90F
STURGEON BAY   CLOUDY    34  32  92 SW15      29.93F
MANITOWOC      CLOUDY    37  35  92 SW8       29.98F
SHEBOYGAN      MOSUNNY   35  31  85 SW7       29.98F
$$

LMZ563-521-522-541>543-181900-
LAKESHORE

STATION/POSITION TIME  TEMP    WIND        PRES    VSBY  WAVE
                       AIR SEA DIR/SP/G                  HT/PER
                 (UTC) (F)     (DEG/KT/KT) (MB)    (MI)  (FT/S)
SHEBOYGAN LKSHOR 1800   34     210/  8/  9 1015.7F
KEWAUNEE LKSHORE 1748   35     230/  8/ 12 1014.6F
ALGOMA MARINA    1708          260/ 13/ 17   N/A
NORTHPORT PIER   1740   34     170/  6/ 13 1013.2F
SISTER BAY LKSHO 1735   36     230/ 13/ 19   N/A
MENOMINEE LKSHOR 1748          210/ 12/ 15 1012.5F
$$




USA.gov is the U.S. government's official web portal to all federal, state and local government web resources and services.